Location: New York
(40.7140°N, 74.0060°W)
Time: 05:53:27
(UTC-05:00)

ISS - Visible Passes

Search period start: 28 November 2014 00:00
Search period end: 08 December 2014 00:00
Orbit: 407 x 417 km, 51.6° (Epoch: 28 November)

Date Brightness Start Highest point End Pass type
(mag) Time Alt. Az. Time Alt. Az. Time Alt. Az.
28 Nov -0.6 04:27:26 20° E 04:27:26 20° E 04:28:39 10° ESE visible
28 Nov -1.6 06:00:16 15° W 06:01:54 20° SW 06:04:24 10° S visible
29 Nov -2.2 05:12:47 33° SSW 05:12:47 33° SSW 05:15:14 10° SSE visible
30 Nov -0.1 04:25:21 12° SE 04:25:21 12° SE 04:25:38 10° SE visible
05 Dec -0.5 18:27:46 10° S 18:27:57 11° S 18:27:57 11° S visible
06 Dec -0.8 17:40:00 10° SE 17:40:15 10° SE 17:40:19 10° SE visible
06 Dec 0.1 19:13:05 10° SW 19:13:08 10° SW 19:13:08 10° SW visible
07 Dec -2.2 18:23:04 10° SW 18:25:23 37° S 18:25:23 37° S visible
